KJAC Airport Information

Runway Information
Runway 01 Length 6300 ft width 150 ft
Elevation 6413 ft Threshold 0 ft Heading 20
Runway 19 Length 6300 ft Width 150 ft
Elevation 6451 ft Threshold 0 ft Heading 200
Airport Frequencies
Type ATIS Name ATIS Frequency 120.625 MHZ
Type AWOS Name AWOS 3 Frequency 135.175 MHZ
Type CNTR Name SALT LAKE Frequency 133.25 MHZ
Type CTAF Name CTAF Frequency 118.075 MHZ
Type GND Name GND Frequency 124.55 MHZ
Type RDO Name CASPER RDO Frequency 122.05 MHZ
Type TWR Name TWR Frequency 118.075 MHZ
Type UNIC Name UNICOM Frequency 122.95 MHZ
Airport Navaids
Type VOR-DME Name Jackson Frequency 115400 KHZ
Airport Weather Information & NOTAM
ADDS - METARS form results

(2125 UTC 21 July 2018)
 
METAR text: KJAC 212056Z 00000KT 10SM BKN100 22/08 A3028 RMK AO2 SLP204 60000 T02170083 56006
Conditions at: KJAC (JACKSON , WY, US) observed 2056 UTC 21 July 2018
Temperature: 21.7°C (71°F)
Dewpoint: 8.3°C (47°F) [RH = 42%]
Pressure (altimeter): 30.28 inches Hg (1025.5 mb)
[Sea-level pressure: 1020.4 mb]
Winds: calm
Visibility: 10 or more miles (16+ km)
Ceiling: 10000 feet AGL
Clouds: broken clouds at 10000 feet AGL
Weather: no significant weather observed at this time